Weather History for Cincinnati, OH

Change the Weather History Date:

Saturday, November 17, 2012

  Actual Average Record
Temperature  
Mean Temperature 42 °F -  
Max Temperature 60 °F 55 °F 81 °F (1958)
Min Temperature 25 °F 36 °F 13 °F (1959)
Degree Days  
Heating Degree Days 22    
Moisture  
Dew Point 28 °F    
Average Humidity 79    
Maximum Humidity 100    
Minimum Humidity 31    
Precipitation  
Precipitation 0.00 in - - ()
Sea Level Pressure  
Sea Level Pressure 30.52 in    
Wind  
Wind Speed 1 mph (NE)    
Max Wind Speed 10 mph    
Max Gust Speed -    
Visibility 6 miles    
Events Fog    
Averages and records for this station are not official NWS values.
T = Trace of Precipitation, MM = Missing Value Source: NWS Daily Summary

Daily Weather History Graph

Daily Weather History Graph

Search for Another Location

Airport:

Trip Planner

Search our weather history database for the weather conditions in past years. The results will help you decide how hot, cold, wet, or windy it might be!

Date:

Astronomy

Nov. 17, 2012 Rise Set
Actual Time 7:23 AM EST 5:21 PM EST
Civil Twilight 6:54 AM EST 5:50 PM EST
Nautical Twilight 6:22 AM EST 6:22 PM EST
Astronomical Twilight 5:50 AM EST 6:54 PM EST
Moon 11:07 AM EST (11/17) 9:30 PM EST (11/17)
Length of Visible Light 10h 55m
Length of Day
9h 58m
Waxing Crescent, 20% of the Moon is Illuminated
Nov 17
Waxing Crescent
Nov 20
First Quarter
Nov 28
Full
Dec 6
Last Quarter
Dec 13
New

Hourly Weather History & Observations

Time (EST) Temp. Windchill Dew Point Humidity Pressure Visibility Wind Dir Wind Speed Gust Speed Precip Events Conditions
12:14 AM 30.2 °F - 28.4 °F 93% 30.50 in 3.0 mi Calm Calm - N/A   Clear
12:53 AM 26.1 °F - 25.0 °F 96% 30.52 in 3.0 mi Calm Calm - N/A   Clear
1:19 AM 28.4 °F - 26.6 °F 93% 30.50 in 2.5 mi Calm Calm - N/A   Scattered Clouds
1:40 AM 28.4 °F - 26.6 °F 93% 30.50 in 1.0 mi Calm Calm - N/A   Mist
1:45 AM 28.4 °F - 26.6 °F 93% 30.50 in 0.2 mi Calm Calm - N/A Fog Light Freezing Fog
1:53 AM 27.0 °F - 25.0 °F 92% 30.51 in 0.5 mi Calm Calm - N/A Fog Light Freezing Fog
2:22 AM 28.4 °F - 26.6 °F 93% 30.51 in 1.0 mi Calm Calm - N/A   Clear
2:29 AM 26.6 °F - 24.8 °F 93% 30.51 in 0.8 mi Calm Calm - N/A   Mist
2:42 AM 26.6 °F - 26.6 °F 100% 30.51 in 1.0 mi Calm Calm - N/A   Clear
2:51 AM 28.4 °F - 26.6 °F 93% 30.51 in 3.0 mi Calm Calm - N/A   Clear
2:53 AM 28.0 °F - 27.0 °F 96% 30.52 in 3.0 mi Calm Calm - N/A   Clear
3:04 AM 26.6 °F - 24.8 °F 93% 30.51 in 2.0 mi Calm Calm - N/A   Clear
3:10 AM 26.6 °F - 24.8 °F 93% 30.51 in 0.8 mi Calm Calm - N/A   Clear
3:23 AM 26.6 °F - 26.6 °F 100% 30.51 in 2.5 mi Calm Calm - N/A   Clear
3:30 AM 28.4 °F - 26.6 °F 93% 30.51 in 3.0 mi Calm Calm - N/A   Clear
3:53 AM 27.0 °F 23.0 °F 26.1 °F 96% 30.52 in 5.0 mi NE 3.5 mph - N/A   Clear
4:53 AM 25.0 °F - 23.0 °F 92% 30.53 in 4.0 mi Calm Calm - N/A   Clear
5:53 AM 25.0 °F - 23.0 °F 92% 30.55 in 4.0 mi Calm Calm - N/A   Clear
6:53 AM 26.1 °F - 24.1 °F 92% 30.56 in 2.0 mi Calm Calm - N/A Fog Patches of Fog
7:53 AM 27.0 °F - 24.1 °F 89% 30.57 in 5.0 mi Calm Calm - N/A   Clear
8:53 AM 30.9 °F - 28.9 °F 92% 30.59 in 6.0 mi Calm Calm - N/A   Haze
9:53 AM 39.0 °F 36.8 °F 34.0 °F 82% 30.59 in 7.0 mi NNE 3.5 mph - N/A   Clear
10:53 AM 46.9 °F - 35.1 °F 63% 30.58 in 8.0 mi NNE 6.9 mph - N/A   Clear
11:53 AM 52.0 °F - 35.1 °F 53% 30.56 in 10.0 mi NNE 8.1 mph - N/A   Clear
12:53 PM 57.0 °F - 34.0 °F 42% 30.53 in 10.0 mi NNE 5.8 mph - N/A   Clear
1:53 PM 59.0 °F - 28.9 °F 32% 30.50 in 10.0 mi NE 10.4 mph - N/A   Clear
2:53 PM 60.1 °F - 28.9 °F 31% 30.49 in 10.0 mi ENE 9.2 mph - N/A   Clear
3:53 PM 57.9 °F - 28.0 °F 32% 30.48 in 10.0 mi ENE 9.2 mph - N/A   Clear
4:53 PM 55.0 °F - 30.0 °F 38% 30.48 in 10.0 mi ENE 8.1 mph - N/A   Clear
5:53 PM 48.0 °F - 28.9 °F 48% 30.49 in 10.0 mi NE 6.9 mph - N/A   Clear
6:53 PM 44.1 °F - 30.9 °F 60% 30.50 in 10.0 mi Calm Calm - N/A   Clear
7:53 PM 39.0 °F - 30.9 °F 73% 30.51 in 10.0 mi Calm Calm - N/A   Clear
8:53 PM 37.0 °F - 32.0 °F 82% 30.51 in 10.0 mi Calm Calm - N/A   Clear
9:53 PM 34.0 °F - 30.0 °F 85% 30.50 in 10.0 mi Calm Calm - N/A   Clear
10:53 PM 32.0 °F - 28.9 °F 88% 30.50 in 10.0 mi Calm Calm - N/A   Clear
11:53 PM 32.0 °F - 28.0 °F 85% 30.48 in 10.0 mi Calm Calm - N/A   Clear